STARLINK-32492, 62050

Orbit data source: Space-Track

STARLINK-32492, 62050 is a payload satellite owned by SpaceX/Seattle (US) in LEO that was launched on Thu, 21 Nov 2024 UTC via an FALCON 9 launch vehicle from the Air Force Eastern Test Range (AFETR). Payload-class satellites include a variety of spacecraft equipped with specific instruments for various scientific and technological missions. These include communications satellites like Starlink; space stations such as the ISS; scientific satellites like the Hubble; Earth observation satellites from companies like Planet Labs, Umbra, and HawkEye 360; GPS; miniature CubeSats for education and research; and military/defense satellites.

Loading next visibility...
Identifier
62050, 2024-216U
Orbit
LEO
Country
Flag of USUS
Related business
Manufacturer
SpaceX/Seattle
Mission
Operational Commercial Communications
Bus & Motor
STARLINK V2M, Unknown motor
Mass
730 kg wet, ~700 kg dry
Launch date (UTC)
2024-11-21 (1 year ago)
Launch vehicle
FALCON 9
Launch site
Air Force Eastern Test Range (AFETR)
Object type
Payload
Rocket body
Debris
Shape & HBR
Box + 2 Pan, 17.7 m
Radar Cross Section
33.884 m², Large (>1 m²)

Expand to show TLE details & history
Last TLE update: 2 days ago

TLE from 2 days ago
0 STARLINK-32492
1 62050U 24216U   25311.79897798  .00058482  00000-0  21170-2 0  9994
2 62050  42.9991 231.6514 0001623 271.0409  89.0257 15.27594441 55155
Epoch: 2025-11-07T19:10Z
TLE epoch observation values (Epoch: 2025-11-07T19:10:31.697Z)
Latitude
Longitude
-103.21843°
Altitude
482.762 km
Speed
7.626 km/s
True Right ascension
15h 26m 36s
True Declination
0° 00' 00"
Sunlit
Object was in daylight at epoch
Visualization orbit readout
Latitude
Unknown
Longitude
Unknown
Altitude
Unknown
Speed
Unknown
Apparent Right ascension
Unknown
Apparent Declination
Unknown
Sunlit
N/A
Visualization observer readout
Local Sidereal Time
03:44:46
Azimuth
Unknown
Elevation
Unknown
Doppler factor
Unknown
Orbital elements
Apogee altitude
486.065 km
Perigee altitude
483.837 km
Semi-major axis
6,863.088 km
Eccentricity
0.00016
Inclination
42.9991°
RAAN
231.6514°
Arg. of periapsis
271.0409°
True anomaly
89.0443°
Mean anomaly
89.0257°
Eccentric anomaly
89.035°
Mean motion
3.81737 °/min
Orbital period
94.31 mins
BSTAR
0.002117
Loading maneuver chart data...
Computing Atmospheric mass density...
Loading historical data...
Loading historical data...
Loading historical data...
Loading historical data...
Loading historical data...
Loading historical data...
Loading historical data...

Documentation

Showing up to 5 results
|